Wind_Speed
32 33 34 34 33 34 36 36 37 34 32 32 35 36 37 38 39 40 41 43 44 46 48 50 52 55 58 60 63 66 69 72 75 77 79 81 83 84 85 86 87 87 86 85
34 35 36 36 34 35 37 37 37 37 35 34 35 37 38 40 41 42 44 45 47 49 51 54 56 59 62 64 68 71 73 76 78 80 82 84 85 86 87 87 86 85 83 81
37 36 39 38 35 36 37 38 38 38 36 36 36 38 39 41 42 44 46 47 49 52 54 57 60 63 66 68 72 74 77 79 81 83 84 85 87 87 87 86 84 81 77 74
40 40 41 38 37 37 37 38 38 38 37 37 38 39 41 42 44 46 48 50 52 55 58 61 64 67 69 72 75 78 80 81 83 85 86 87 87 86 85 82 79 75 71 68
42 43 43 39 38 38 39 39 38 38 38 39 40 41 43 45 46 49 51 53 56 58 61 64 67 70 73 76 78 80 82 83 84 86 87 87 86 83 79 76 72 68 64 62
43 45 45 41 40 40 41 40 38 39 40 40 42 43 44 47 49 51 54 56 59 62 64 67 70 73 76 78 80 81 83 84 85 86 86 85 82 77 73 69 66 62 59 57
45 46 46 44 43 42 41 40 40 40 41 42 43 45 47 49 51 54 56 59 62 64 67 70 74 76 78 79 81 83 84 85 85 85 82 79 75 70 67 64 60 57 55 53
46 47 46 45 43 42 42 42 42 42 42 44 45 47 49 51 54 56 59 62 65 67 70 73 75 77 79 80 82 84 84 85 83 80 76 72 68 64 61 59 56 54 52 50
45 45 45 44 43 43 43 42 42 43 44 46 47 49 52 54 56 59 62 65 68 71 73 74 76 78 80 82 84 84 84 82 78 74 69 66 63 60 57 55 53 52 50 48
44 44 44 44 43 43 42 43 43 45 46 48 50 52 54 56 59 62 65 68 70 72 74 75 77 79 82 83 84 84 81 77 72 68 64 60 57 55 53 52 51 50 48 46
45 44 44 44 43 43 43 44 45 46 48 50 52 55 57 60 63 66 68 70 72 73 75 77 79 81 83 84 83 80 76 71 67 63 59 55 52 51 50 49 50 49 47 45
43 43 43 42 42 43 44 45 47 49 51 53 55 58 60 63 66 68 70 71 73 75 77 79 81 82 82 82 79 75 71 66 62 57 54 51 49 47 46 47 47 47 46 45
43 42 42 42 42 43 45 47 48 51 53 55 58 61 63 65 67 69 71 73 75 77 79 81 82 81 80 77 73 70 66 61 57 53 51 49 47 46 44 43 43 43 44 43
42 41 42 42 43 45 46 48 51 53 56 58 61 63 65 67 68 70 72 74 76 78 80 81 81 78 75 72 68 64 60 56 53 50 48 47 46 45 44 42 40 39 40 41
40 41 42 43 45 46 48 51 53 56 58 61 63 65 66 68 70 71 73 76 77 79 79 79 77 73 70 66 63 59 55 52 49 48 47 45 45 44 43 42 41 39 38 38
40 42 43 44 46 48 51 53 56 58 60 62 64 65 67 69 71 72 74 77 78 78 77 76 72 68 65 62 58 54 50 49 48 47 45 44 43 42 42 41 40 38 37 37
41 43 44 46 49 51 54 56 58 60 61 63 65 66 68 70 72 74 75 76 77 76 74 71 67 63 60 57 53 50 48 46 46 45 43 42 41 41 40 39 38 36 36 37
43 45 47 49 52 54 56 57 59 61 62 64 66 68 70 72 74 75 76 75 74 71 68 66 62 58 55 52 49 47 46 44 43 42 40 39 39 39 39 38 37 36 35 35
46 48 50 52 54 55 57 58 60 61 63 66 68 70 72 74 75 76 75 73 70 67 63 60 57 53 50 48 46 45 43 42 41 40 39 38 38 38 38 37 35 34 34 34
48 50 52 53 55 56 58 59 61 63 65 68 70 72 73 74 74 73 71 68 65 63 58 54 51 48 46 44 43 41 40 40 38 37 37 36 36 36 36 35 34 34 33 33
50 51 52 54 55 57 59 61 63 65 68 70 72 73 73 72 71 70 67 63 59 57 53 50 48 45 43 41 40 39 38 37 36 36 35 35 34 34 34 33 33 33 32 32
50 52 54 55 57 59 61 64 66 68 69 71 72 72 71 69 67 65 62 59 55 51 48 46 44 42 40 39 37 36 36 35 35 34 34 33 33 33 33 32 32 31 31 30
52 54 55 57 59 61 63 65 67 69 70 70 70 69 68 66 64 61 57 53 50 47 44 42 41 39 38 36 35 35 34 33 33 33 32 32 32 32 31 30 30 29 29 29
54 56 58 60 62 64 65 67 68 68 69 68 67 67 65 63 60 57 53 49 46 44 42 40 39 37 36 35 34 33 32 32 31 31 31 31 31 29 29 29 28 28 27 27
56 58 60 62 64 65 66 67 67 67 66 65 64 63 62 60 57 52 49 46 44 42 40 39 38 36 35 34 33 31 31 30 30 29 28 29 28 27 27 27 26 26 26 25
59 61 62 64 65 66 66 67 66 66 65 63 61 60 58 56 53 49 46 44 42 41 39 38 36 35 33 32 31 30 29 29 28 27 27 27 26 25 25 25 25 24 24 24
61 62 63 64 65 66 66 66 65 64 63 62 59 56 54 52 49 47 44 42 41 39 38 36 35 33 32 30 29 28 27 26 26 25 25 25 24 23 23 23 23 23 23 24
Wind_Direction
268 269 272 275 278 280 282 284 286 288 286 284 283 285 286 287 288 289 291 293 296 297 299 300 301 302 303 304 304 305 305 306 306 305 305 305 304 304 304 303 303 303 302 301
267 270 273 275 279 281 283 285 287 288 287 283 282 283 285 286 287 289 292 294 296 298 299 300 301 303 304 304 305 306 306 306 306 306 306 306 306 305 305 305 305 304 303 302
269 270 272 276 279 281 282 284 286 287 286 283 282 282 283 285 287 289 292 295 296 298 299 301 302 303 305 305 306 307 307 308 308 308 307 307 307 307 307 307 306 305 304 302
272 272 273 278 280 281 282 283 284 285 283 283 283 283 284 286 288 291 293 295 297 299 301 302 303 304 305 306 307 308 309 309 309 309 309 309 309 309 308 307 306 305 304 303
274 275 275 278 281 282 282 283 284 283 283 282 283 284 286 288 291 293 295 297 299 300 302 303 304 305 306 308 309 309 310 310 310 310 310 310 310 310 309 308 307 306 305 304
274 276 277 279 279 281 282 283 283 282 282 282 284 285 288 290 293 295 297 298 300 302 303 304 305 307 308 309 310 310 311 311 311 312 312 311 311 310 309 309 308 307 307 306
273 276 278 281 282 282 282 284 283 282 282 283 285 288 290 292 294 296 298 299 301 303 305 306 307 308 309 310 311 311 312 313 313 313 312 312 311 311 310 310 309 309 308 308
272 275 278 280 281 281 283 284 284 284 284 286 288 290 292 293 295 297 300 302 303 305 306 308 309 309 310 311 312 312 313 313 313 313 312 312 311 311 311 311 311 311 310 309
273 275 277 278 278 280 282 283 284 285 286 288 290 291 293 295 297 300 302 303 305 306 308 309 310 310 311 312 312 313 314 314 313 313 312 312 312 312 312 312 312 312 312 311
273 274 274 276 278 280 282 284 285 286 288 289 291 293 295 298 300 302 304 305 306 308 309 310 310 311 312 313 314 314 314 314 313 313 312 312 312 313 313 313 313 313 313 312
271 272 274 276 278 281 283 284 286 287 289 291 293 295 298 300 302 304 305 306 307 309 309 310 311 312 313 314 314 314 314 314 313 313 313 313 313 313 314 314 315 315 314 314
270 272 274 276 279 281 283 285 287 289 291 293 295 298 300 302 304 305 306 307 308 309 310 311 312 313 314 314 314 314 314 314 313 313 313 313 313 314 315 316 316 315 315 316
270 272 274 277 280 282 284 286 288 290 293 295 297 300 301 303 304 306 307 308 309 310 311 312 313 313 314 314 314 314 314 314 314 314 314 314 315 315 315 316 316 316 315 316
271 274 276 279 281 282 284 287 289 292 294 297 299 300 302 304 305 306 307 308 309 310 311 312 313 313 313 313 313 314 314 314 314 315 315 315 316 317 317 317 317 316 315 315
271 274 277 279 281 283 285 288 291 293 296 298 299 301 303 304 305 307 308 308 309 310 311 312 313 313 312 312 313 313 313 313 314 315 315 316 317 317 318 318 318 318 317 317
272 274 276 278 281 284 287 290 292 294 296 298 300 301 303 304 306 307 308 309 310 311 311 311 312 311 311 312 312 313 313 313 314 315 315 316 317 318 319 319 319 319 319 318
272 275 278 281 283 286 289 291 293 295 297 299 300 302 303 305 306 307 308 309 310 311 311 311 311 311 311 312 312 312 312 313 314 315 316 317 318 319 319 320 320 320 320 320
275 277 281 283 286 289 291 293 295 297 299 300 302 303 304 305 306 307 308 309 310 310 310 310 310 310 310 311 311 311 312 313 315 315 316 317 318 319 320 320 320 320 321 322
279 281 284 287 289 291 293 295 296 298 299 301 302 304 305 306 307 308 309 309 310 309 309 309 309 309 310 310 311 311 312 313 315 316 317 317 318 319 320 321 321 322 322 323
282 285 287 289 291 293 295 296 298 299 301 302 303 304 305 306 307 308 309 310 310 309 310 309 309 309 309 309 311 311 312 314 315 316 317 317 318 319 320 321 321 322 323 324
285 287 289 291 293 294 296 297 299 300 302 303 304 305 306 307 308 308 309 309 309 309 309 309 308 309 309 309 310 311 312 314 315 316 317 317 318 319 320 321 322 323 323 324
286 288 290 292 293 295 297 298 300 301 302 303 304 305 306 307 308 308 309 309 309 308 308 308 308 308 309 309 310 311 312 313 315 316 317 318 318 319 320 321 322 323 324 325
288 290 291 293 294 296 297 299 300 302 303 304 305 306 306 307 308 309 308 308 307 307 307 307 308 308 308 308 310 311 312 313 315 316 317 318 319 319 321 322 323 324 325 325
289 291 292 294 295 297 298 300 301 302 303 305 305 306 306 307 308 308 308 308 307 307 307 307 308 308 308 308 309 311 312 313 315 316 316 318 319 320 322 323 324 325 326 327
290 292 294 295 296 298 299 301 302 303 304 304 305 306 306 307 308 308 307 306 305 306 306 307 307 308 308 308 309 310 311 312 314 315 316 318 319 320 322 324 326 327 329 330
292 293 294 296 297 299 300 301 302 303 304 304 304 305 305 305 306 306 305 305 304 305 305 306 306 306 307 307 308 308 309 311 312 313 315 317 319 321 323 325 327 329 330 332
292 294 295 297 298 299 301 302 302 303 303 304 304 304 304 304 304 303 303 303 303 304 304 304 304 305 305 305 306 307 308 309 310 311 313 316 318 320 322 324 326 328 330 332
Height
5753 5752 5751 5752 5752 5750 5748 5746 5744 5745 5743 5741 5736 5733 5731 5728 5725 5722 5718 5715 5711 5708 5703 5699 5693 5688 5682 5675 5668 5660 5653 5644 5636 5626 5616 5606 5596 5586 5575 5563 5552 5541 5530 5520
5745 5744 5742 5743 5744 5742 5739 5737 5736 5734 5733 5731 5728 5725 5721 5718 5715 5712 5709 5705 5701 5697 5692 5687 5681 5675 5669 5661 5653 5645 5636 5627 5617 5607 5597 5585 5574 5563 5552 5540 5529 5517 5506 5495
5736 5735 5733 5735 5737 5734 5732 5730 5728 5725 5724 5721 5718 5715 5712 5709 5706 5702 5699 5695 5691 5686 5680 5674 5668 5661 5654 5646 5637 5628 5618 5608 5597 5586 5576 5564 5552 5540 5528 5517 5506 5494 5483 5473
5725 5726 5725 5729 5726 5725 5722 5721 5719 5716 5713 5711 5708 5705 5702 5699 5696 5692 5688 5684 5679 5673 5667 5661 5653 5646 5638 5629 5619 5609 5599 5588 5576 5565 5554 5542 5530 5517 5505 5494 5483 5473 5463 5453
5715 5714 5714 5718 5717 5714 5712 5711 5709 5706 5704 5701 5698 5695 5692 5689 5685 5681 5676 5672 5666 5660 5653 5646 5638 5630 5621 5612 5601 5591 5580 5568 5556 5544 5532 5520 5508 5496 5484 5473 5463 5453 5444 5435
5706 5704 5704 5708 5707 5704 5702 5701 5700 5696 5693 5691 5688 5686 5683 5678 5674 5669 5664 5658 5652 5646 5639 5631 5622 5613 5604 5594 5583 5572 5561 5549 5536 5522 5510 5498 5486 5475 5464 5453 5444 5436 5428 5420
5696 5693 5694 5696 5694 5693 5693 5692 5689 5686 5683 5681 5678 5675 5672 5667 5662 5657 5651 5645 5639 5631 5623 5614 5605 5596 5586 5575 5564 5553 5541 5529 5516 5502 5489 5478 5467 5457 5446 5437 5429 5421 5413 5406
5686 5684 5686 5684 5683 5682 5681 5679 5677 5674 5672 5670 5667 5663 5659 5654 5649 5644 5638 5631 5624 5616 5607 5597 5587 5578 5568 5557 5547 5535 5523 5510 5498 5485 5471 5460 5450 5441 5431 5422 5414 5407 5399 5393
5677 5677 5675 5673 5671 5670 5669 5668 5666 5663 5661 5658 5655 5651 5646 5641 5636 5630 5623 5616 5608 5599 5591 5581 5569 5559 5549 5538 5527 5516 5504 5491 5479 5468 5456 5445 5435 5426 5418 5409 5400 5393 5386 5380
5665 5665 5663 5662 5660 5660 5658 5657 5654 5652 5649 5646 5642 5638 5633 5628 5622 5615 5608 5600 5591 5582 5573 5564 5553 5541 5529 5518 5507 5496 5485 5473 5462 5451 5442 5432 5422 5413 5404 5396 5388 5381 5374 5368
5653 5653 5652 5651 5650 5649 5648 5646 5643 5640 5637 5633 5629 5624 5619 5613 5607 5600 5592 5583 5574 5565 5556 5546 5535 5524 5511 5499 5488 5478 5467 5456 5446 5437 5427 5419 5411 5402 5393 5385 5376 5368 5362 5356
5643 5643 5642 5641 5640 5638 5636 5634 5631 5628 5624 5619 5615 5610 5604 5598 5591 5583 5575 5566 5557 5548 5538 5528 5518 5507 5494 5482 5470 5460 5450 5441 5432 5423 5415 5406 5399 5393 5384 5375 5367 5358 5350 5344
5632 5632 5631 5630 5629 5627 5625 5622 5618 5615 5611 5606 5601 5595 5589 5583 5575 5567 5558 5549 5540 5531 5521 5511 5500 5489 5477 5466 5455 5444 5435 5426 5418 5410 5402 5394 5387 5380 5374 5368 5359 5350 5342 5335
5621 5621 5620 5619 5618 5615 5613 5609 5606 5602 5597 5592 5587 5580 5574 5567 5559 5551 5542 5533 5524 5514 5504 5493 5483 5472 5460 5450 5441 5431 5422 5413 5406 5398 5391 5383 5376 5369 5362 5355 5350 5343 5335 5327
5611 5610 5610 5608 5606 5603 5600 5597 5593 5588 5583 5578 5572 5565 5558 5551 5544 5535 5526 5517 5507 5498 5487 5476 5466 5456 5445 5436 5427 5419 5410 5403 5395 5388 5380 5373 5366 5359 5352 5345 5339 5332 5326 5320
5600 5599 5598 5596 5594 5591 5587 5584 5580 5575 5569 5564 5557 5550 5543 5535 5528 5520 5510 5500 5490 5481 5470 5460 5451 5441 5431 5423 5415 5407 5399 5392 5384 5377 5370 5363 5356 5349 5343 5336 5330 5323 5317 5311
5589 5588 5586 5584 5581 5578 5574 5570 5565 5560 5555 5549 5542 5535 5528 5520 5512 5504 5494 5484 5473 5463 5452 5443 5435 5426 5417 5409 5402 5395 5389 5382 5374 5367 5360 5354 5347 5340 5334 5327 5321 5315 5309 5302
5577 5576 5574 5571 5568 5564 5560 5555 5550 5545 5539 5532 5526 5519 5511 5503 5495 5486 5477 5468 5458 5448 5437 5427 5419 5412 5405 5397 5390 5384 5377 5371 5364 5358 5351 5345 5339 5332 5326 5319 5313 5307 5301 5295
5565 5563 5560 5557 5554 5550 5545 5540 5535 5529 5523 5516 5510 5503 5495 5486 5476 5468 5459 5450 5440 5432 5425 5415 5406 5399 5392 5386 5379 5373 5367 5361 5355 5349 5343 5337 5331 5324 5318 5312 5306 5300 5294 5288
5552 5550 5546 5543 5539 5534 5530 5525 5519 5514 5507 5499 5492 5485 5478 5469 5459 5451 5442 5434 5423 5414 5409 5401 5394 5388 5381 5375 5369 5363 5357 5352 5346 5340 5334 5329 5323 5317 5311 5305 5299 5293 5288 5282
5539 5535 5532 5528 5525 5520 5514 5508 5503 5497 5491 5482 5475 5467 5460 5452 5443 5433 5425 5419 5411 5401 5395 5388 5382 5376 5371 5365 5360 5354 5348 5343 5337 5332 5326 5321 5315 5310 5304 5298 5293 5287 5281 5276
5524 5521 5518 5514 5510 5505 5499 5493 5486 5480 5474 5466 5457 5449 5441 5435 5427 5419 5410 5401 5396 5389 5383 5377 5371 5365 5360 5355 5350 5345 5339 5334 5329 5324 5319 5313 5308 5303 5297 5292 5286 5281 5275 5270
5510 5507 5503 5498 5494 5490 5484 5477 5470 5463 5456 5449 5440 5432 5424 5417 5410 5402 5397 5390 5382 5376 5371 5365 5360 5355 5350 5345 5340 5336 5331 5326 5321 5316 5311 5306 5301 5296 5291 5286 5280 5275 5270 5264
5495 5491 5487 5482 5477 5472 5467 5461 5454 5446 5439 5432 5424 5415 5407 5401 5396 5387 5380 5375 5370 5364 5360 5354 5349 5344 5340 5335 5331 5327 5322 5318 5313 5309 5304 5299 5294 5289 5284 5280 5274 5269 5264 5259
5480 5476 5471 5466 5460 5455 5449 5444 5438 5430 5423 5416 5409 5400 5392 5384 5379 5374 5368 5363 5358 5353 5349 5344 5339 5335 5330 5326 5322 5318 5314 5310 5305 5301 5297 5293 5288 5283 5279 5274 5269 5265 5260 5255
5464 5460 5454 5449 5442 5437 5431 5425 5420 5413 5406 5400 5394 5386 5379 5372 5365 5360 5355 5351 5346 5342 5337 5333 5329 5325 5321 5317 5313 5310 5306 5302 5298 5294 5291 5287 5282 5278 5274 5269 5265 5260 5256 5251
5447 5443 5438 5433 5426 5419 5414 5407 5402 5396 5389 5382 5378 5372 5365 5359 5353 5348 5343 5339 5335 5331 5327 5323 5319 5315 5312 5308 5305 5302 5298 5295 5292 5288 5285 5281 5277 5273 5269 5265 5261 5256 5252 5247